Theta_e
312 317 318 319 319 318 315 313 313 315 316 316 316 318 318 318 317 316 318 318 313 315 321 318 317 319 319 319 315 311 313 312 310 310 309 307 306 305 304 304 304 305 304 305 306 306 307 308 308 309 309 310 310 310 310 310 310 310 310 311 311 311 312 313 314 316 318 319 320 320 320 320 321 321 321 321 321 320 320 320 320 320 320 320 320 320
312 317 319 319 318 316 315 313 312 313 313 313 315 316 318 318 318 316 317 318 312 314 322 319 317 319 319 317 313 311 313 311 308 308 307 306 305 304 304 303 304 304 304 305 306 306 307 307 308 308 308 308 308 308 308 308 308 308 308 308 309 309 309 310 311 312 313 315 316 317 317 318 318 318 318 319 318 318 318 318 318 319 319 318 318 318
314 316 317 315 313 313 315 314 314 315 315 315 316 317 319 319 319 320 320 319 315 315 323 323 317 318 319 315 310 308 310 308 307 308 306 305 304 303 303 303 303 304 304 305 305 306 306 307 307 307 308 308 308 308 308 308 308 308 308 308 308 308 308 308 308 308 309 310 311 312 313 313 314 313 314 314 314 314 314 315 315 315 315 315 315 315
317 319 315 312 312 314 316 316 316 316 316 318 318 318 320 319 318 323 323 321 319 315 319 321 317 319 319 314 309 308 308 306 306 306 305 304 304 303 303 302 303 303 304 305 305 306 307 307 307 308 308 308 308 308 308 308 308 308 308 308 308 308 308 308 307 307 307 308 308 309 309 309 309 309 309 309 309 309 310 310 310 310 310 311 311 312
320 319 314 312 315 316 317 318 317 318 320 322 322 320 320 320 319 321 321 320 321 319 318 317 319 326 325 316 311 309 307 306 306 305 304 303 302 302 302 302 302 302 303 304 305 306 307 307 307 307 308 308 308 308 308 308 308 308 308 308 308 308 308 308 308 307 307 307 307 307 307 307 307 307 307 307 307 306 306 306 306 306 306 306 307 307
318 315 314 316 318 318 319 320 321 321 322 324 326 323 320 321 321 320 319 319 321 324 320 315 321 331 330 321 314 309 308 307 305 304 304 303 302 302 301 301 301 302 303 303 304 306 306 306 306 307 307 307 307 307 307 307 307 307 307 307 307 307 307 307 307 307 307 307 307 307 307 307 306 307 306 306 306 305 305 305 305 304 304 304 304 304
318 315 316 319 321 321 320 321 324 322 321 322 324 324 322 320 320 320 318 319 323 324 318 316 321 325 325 324 315 310 309 307 305 304 303 302 302 301 301 300 301 301 302 303 304 305 305 306 306 306 306 306 306 306 306 307 306 306 306 306 306 306 306 306 306 307 307 307 307 307 307 307 307 306 306 305 305 305 305 305 304 304 304 304 303 303
318 316 318 318 319 321 320 321 324 321 322 325 322 322 325 322 320 321 318 318 322 320 318 319 320 318 319 320 314 310 310 308 305 304 302 302 301 300 300 300 300 301 301 303 304 304 305 305 306 306 306 306 306 306 306 306 306 306 305 305 305 305 305 306 306 306 306 306 307 307 307 307 306 306 305 305 305 305 305 305 305 304 304 304 303 303
316 317 320 320 319 320 323 325 323 319 323 326 319 318 323 322 321 321 318 319 318 316 319 322 317 316 321 320 311 310 313 310 306 305 302 302 301 300 299 299 299 300 301 302 303 304 304 305 305 305 305 305 305 305 305 305 305 305 305 304 304 304 305 305 305 306 305 306 306 306 306 306 306 305 305 304 304 304 304 304 304 304 304 304 304 303
315 315 316 320 322 322 326 326 322 322 321 318 316 319 323 322 321 319 317 320 320 316 318 320 316 315 322 322 313 310 315 313 307 304 303 301 300 300 299 298 298 299 300 301 302 303 304 304 304 304 304 304 304 304 304 304 304 304 304 304 304 304 304 304 305 305 305 305 305 305 305 304 304 304 303 303 303 303 302 303 303 303 303 303 303 303
314 311 311 316 319 319 322 317 313 318 315 312 317 324 326 324 323 323 320 319 319 320 320 320 318 315 320 325 318 313 313 311 306 304 302 301 300 300 299 298 298 298 300 301 302 303 303 303 303 303 304 304 304 303 304 303 303 303 303 303 303 303 303 303 304 304 304 303 303 303 303 303 303 302 302 302 301 301 301 301 301 301 302 302 302 302
314 313 314 314 313 314 316 314 311 311 310 313 322 324 323 325 324 323 323 319 319 323 324 320 316 314 318 323 318 311 309 307 306 304 302 301 300 299 299 298 298 299 300 301 302 302 302 302 303 303 303 303 303 303 303 303 302 302 302 302 302 302 302 302 302 303 302 302 302 302 302 301 301 300 301 300 300 300 300 300 300 300 300 300 300 301
319 318 314 313 313 313 317 318 315 314 313 317 322 320 320 322 320 320 320 319 319 321 319 316 315 315 319 318 312 308 305 305 305 303 301 300 299 299 298 298 298 299 301 301 302 302 302 302 302 302 302 302 302 302 302 302 301 301 301 301 301 301 301 301 301 301 301 300 300 300 300 299 299 299 299 298 298 298 298 298 298 298 298 298 299 299
323 321 314 314 314 313 317 319 319 320 317 316 319 319 321 321 320 323 321 315 316 319 315 313 314 317 320 314 307 304 302 302 303 302 301 301 299 299 298 298 299 300 301 301 301 301 301 301 301 301 301 301 301 301 301 300 300 300 300 300 300 300 299 299 299 299 299 298 298 298 297 297 297 297 297 297 296 296 296 296 296 296 296 296 296 296
324 323 319 318 316 314 316 316 321 326 319 314 318 319 320 323 323 324 323 318 318 321 316 312 314 321 322 312 302 301 300 299 302 301 300 300 299 298 298 298 300 300 301 301 301 301 300 300 300 300 300 300 300 300 300 299 299 299 299 298 298 298 297 297 297 297 296 296 296 296 295 295 295 295 295 294 294 294 294 293 293 294 293 293 293 293
320 323 322 316 312 314 315 313 316 324 321 314 315 316 317 322 321 318 320 320 319 321 318 316 318 317 313 306 300 300 300 298 300 299 299 299 297 298 298 299 300 300 300 300 300 300 299 299 299 299 299 299 299 299 298 298 298 298 297 297 296 296 295 295 295 294 294 294 294 294 293 293 293 293 292 292 292 292 292 292 291 292 291 291 291 291
317 322 321 312 311 313 313 313 312 316 320 315 313 318 318 317 318 320 319 316 314 317 318 318 318 311 307 306 302 301 301 300 299 298 298 298 297 297 298 299 299 300 300 299 299 299 299 299 298 298 298 298 298 297 297 297 296 295 295 294 294 293 293 293 292 292 292 292 292 292 292 291 291 291 291 291 290 290 290 290 290 290 290 290 290 290
317 320 319 315 316 313 307 310 310 309 315 318 317 319 316 313 317 321 321 318 317 318 317 318 317 314 313 311 304 301 303 302 300 298 297 297 297 297 298 299 299 299 299 299 298 298 298 298 298 297 297 297 296 296 295 294 294 293 293 292 292 292 291 291 291 291 290 290 291 290 290 290 290 290 290 290 290 290 290 290 289 289 289 289 289 289
316 319 318 314 316 314 308 312 314 310 310 315 316 315 314 316 320 319 318 319 319 317 318 320 318 315 315 313 306 304 304 302 301 300 299 298 297 297 298 298 298 298 298 298 298 298 298 298 298 298 297 297 296 295 294 293 292 292 291 291 291 291 290 290 290 290 290 290 290 290 290 290 290 290 289 289 289 289 289 289 289 289 289 289 289 289
316 318 319 313 312 314 313 315 319 317 311 310 311 312 314 317 319 318 316 318 319 315 316 318 316 317 319 315 311 308 303 301 301 300 300 298 298 299 299 298 298 298 298 298 298 298 298 298 298 297 296 295 294 292 292 291 291 290 290 290 290 290 290 290 290 290 290 290 290 290 290 290 290 290 289 289 289 289 289 289 289 289 289 289 289 289
316 315 318 317 313 313 315 316 319 321 315 313 315 315 315 314 316 317 314 315 319 317 318 317 314 319 320 312 311 309 303 301 301 300 299 298 299 300 300 300 300 299 299 299 298 297 297 297 296 294 293 292 291 290 290 290 290 290 290 290 290 290 290 290 290 290 290 290 290 290 290 290 290 290 289 289 289 289 289 289 289 289 289 289 289 289
315 315 320 322 318 316 319 315 314 318 317 319 320 317 318 317 316 316 314 314 316 316 319 318 315 319 316 308 308 307 302 301 300 299 299 299 301 301 301 301 300 299 299 299 298 297 297 296 293 292 291 290 290 290 290 290 289 289 290 290 290 290 290 290 290 290 290 290 290 290 290 289 289 289 289 289 289 289 289 289 289 289 289 289 288 288
311 316 320 321 318 317 315 310 308 311 313 315 316 314 316 317 317 317 315 315 315 314 314 315 314 316 310 304 305 303 301 300 300 300 300 301 302 302 302 301 300 299 299 298 297 296 295 294 292 291 290 290 290 289 289 289 289 289 289 290 290 290 290 290 290 290 290 290 290 290 290 289 289 289 289 289 289 289 289 289 288 288 288 288 288 288
312 316 317 318 318 315 313 310 308 310 311 312 313 312 313 315 316 315 314 314 315 314 313 312 313 314 308 302 301 301 300 300 301 301 302 302 303 303 302 302 300 299 299 297 296 295 294 292 291 290 290 289 289 289 289 289 289 290 290 290 290 290 290 290 290 290 290 290 290 290 290 290 289 289 289 289 289 288 288 288 288 288 288 287 287 287
313 315 316 317 317 315 313 312 312 314 313 312 312 310 310 311 312 310 309 311 312 312 313 312 312 312 308 303 301 302 302 301 301 302 302 303 304 303 302 302 300 300 298 297 296 294 293 292 291 290 290 290 289 289 290 290 290 290 290 290 290 290 290 290 290 290 290 290 290 290 290 290 289 289 289 289 288 288 288 288 288 287 287 287 287 287
312 314 314 315 315 314 313 312 313 315 313 310 308 308 307 309 309 308 308 309 310 311 311 311 311 311 308 305 305 305 304 304 303 302 302 302 303 303 302 302 300 299 297 296 295 294 293 292 291 290 290 290 290 290 291 291 291 291 291 290 290 290 290 290 290 290 290 290 290 290 290 290 289 289 289 288 288 288 288 288 287 287 287 286 286 286
312 311 312 314 313 312 312 312 311 311 312 311 310 309 308 307 306 306 307 308 309 309 308 308 309 310 308 307 307 306 306 306 304 302 301 302 302 303 302 301 300 298 297 296 295 294 293 291 291 290 290 290 291 291 292 291 291 291 291 291 291 291 291 291 290 290 290 290 290 290 290 290 289 289 288 288 288 288 288 287 287 287 286 286 286 285
312 311 310 312 312 310 310 310 309 308 310 311 310 309 309 307 306 306 306 306 307 307 307 307 307 308 308 307 307 307 307 306 303 301 301 302 301 302 302 300 298 297 296 295 294 293 292 291 291 292 292 292 292 292 292 291 291 291 291 291 291 291 291 291 290 290 290 290 290 290 290 289 289 289 288 288 287 287 287 287 286 286 285 285 285 284
312 311 308 309 311 310 307 307 307 306 307 308 307 308 308 306 305 305 304 305 305 305 305 305 305 305 305 304 305 305 304 303 302 301 301 301 300 300 300 299 297 296 295 294 293 292 292 292 293 293 293 292 292 292 291 291 291 291 291 291 291 291 291 291 291 290 290 290 290 290 289 289 289 288 288 287 287 287 286 286 285 285 284 284 284 284
309 310 306 306 310 308 305 305 305 304 304 305 304 304 304 303 303 303 302 303 303 303 303 303 303 303 303 302 302 302 301 300 300 300 300 299 299 299 298 297 296 296 295 294 293 293 293 293 293 293 293 292 292 292 292 292 291 291 291 291 291 291 291 290 290 290 290 290 289 289 288 288 288 288 287 287 286 286 285 285 284 284 284 284 284 284
306 308 304 304 307 306 302 301 302 303 302 302 301 300 300 300 300 300 300 301 301 301 301 301 301 301 301 300 300 300 299 298 297 297 298 298 298 298 298 297 296 295 294 294 294 294 294 294 293 293 293 292 292 292 292 291 291 291 290 290 290 289 289 289 289 289 288 288 288 287 287 287 287 287 286 286 285 285 284 284 284 284 284 284 284 284
305 305 303 303 307 306 301 299 301 301 300 300 299 299 298 298 298 298 298 299 300 300 299 300 300 301 300 298 298 297 296 295 296 296 297 297 298 298 297 297 295 294 294 294 294 293 293 293 293 292 291 291 291 291 291 291 290 290 289 289 289 289 288 288 288 288 288 287 287 287 287 286 286 285 285 284 284 284 284 284 284 284 284 284 284 284
305 306 304 304 305 304 300 299 300 300 300 300 299 298 298 298 298 297 297 298 298 298 299 300 299 299 299 298 298 297 295 293 294 295 296 296 297 297 297 296 294 293 293 293 292 292 292 292 291 291 290 290 290 290 290 290 289 289 289 289 288 288 288 288 288 287 287 287 286 286 285 285 284 284 284 283 283 283 283 283 283 283 283 283 284 284
303 305 305 304 304 303 300 299 300 300 300 300 299 299 299 298 298 298 297 298 298 299 300 300 299 300 299 298 299 299 296 294 293 294 295 295 296 296 294 293 293 292 292 292 292 291 291 291 291 291 291 291 291 290 290 289 289 289 289 288 288 288 288 287 287 287 286 286 285 284 284 284 283 283 283 283 283 283 283 283 283 283 283 283 283 283
302 303 304 303 303 302 299 299 300 301 300 299 300 300 299 298 299 298 297 298 298 298 299 299 299 299 297 296 297 298 296 294 293 293 293 293 293 293 293 292 292 292 292 292 291 291 291 291 291 291 291 291 290 290 289 289 289 289 288 288 288 288 287 287 287 286 285 285 284 284 283 283 283 283 283 283 283 283 283 282 282 282 282 282 282 282
302 302 302 303 302 300 299 300 301 300 299 299 299 298 296 296 297 296 296 297 297 297 297 297 298 297 295 295 296 295 294 293 292 292 292 292 292 292 292 292 292 292 292 291 291 291 291 291 290 290 290 290 290 290 289 289 289 288 288 288 287 287 287 287 286 285 284 284 283 283 283 283 283 283 282 282 282 282 282 282 282 282 281 281 282 281
301 302 302 302 301 301 300 300 300 300 299 299 299 297 295 295 296 297 297 297 296 295 294 296 298 295 292 293 294 293 292 291 291 292 292 292 292 292 292 292 292 292 291 291 291 290 290 290 290 290 290 290 290 289 289 288 288 288 288 287 287 287 287 286 285 284 283 283 283 283 282 282 282 282 282 282 282 282 282 281 281 281 281 281 281 281
299 301 301 301 301 301 301 300 299 299 298 298 297 296 294 294 296 296 296 297 297 293 291 294 297 293 290 290 291 291 291 291 292 293 292 292 292 292 292 292 291 291 291 290 290 290 290 290 290 290 290 289 289 289 288 288 288 287 287 287 287 287 286 285 284 283 283 283 282 282 282 282 282 281 281 281 281 281 281 281 281 281 280 280 280 280
297 297 299 300 300 300 300 300 299 298 298 298 297 295 293 293 295 294 295 298 297 292 291 293 294 291 290 291 291 290 292 293 294 293 292 292 292 292 292 292 291 291 291 290 290 290 289 290 289 289 289 289 288 288 287 287 287 287 287 287 287 286 285 284 283 283 282 282 282 282 281 281 281 281 281 281 280 280 280 280 280 280 280 279 279 278
296 296 298 299 299 298 298 298 297 297 297 297 296 294 292 292 294 295 296 298 295 291 292 294 293 292 293 293 291 291 293 294 294 293 292 292 291 291 291 291 291 290 290 290 290 289 289 289 289 289 289 288 288 287 287 287 287 287 287 286 286 286 284 283 283 282 282 282 282 281 281 281 280 280 280 280 280 280 280 280 279 279 279 278 277 277
294 295 296 297 298 297 297 297 296 296 297 296 294 293 292 292 294 295 296 298 295 292 293 294 293 293 294 292 291 291 293 293 293 293 292 291 290 290 290 290 290 290 290 290 289 289 289 289 289 289 288 288 287 287 287 287 286 286 286 286 286 285 284 283 282 282 282 282 281 281 280 280 280 280 280 280 280 280 280 279 279 278 278 277 277 275
293 293 294 296 297 296 296 297 296 296 296 294 292 292 292 293 295 295 295 295 294 292 293 293 293 293 293 292 292 292 293 293 293 292 291 290 290 290 290 290 290 290 289 289 289 289 289 288 288 288 288 287 287 287 287 286 286 286 286 285 285 284 283 282 281 281 281 281 281 280 280 280 280 280 279 279 279 279 279 279 278 278 277 276 275 274
293 293 293 294 295 295 295 295 295 296 295 293 292 293 292 294 296 296 294 294 294 293 293 293 293 293 293 293 293 293 293 293 293 292 291 291 290 290 290 290 290 289 289 288 288 288 288 288 288 288 287 287 287 286 286 286 286 286 285 284 284 282 282 281 281 281 281 281 280 280 280 279 279 279 279 279 278 278 279 278 278 277 276 275 274 273
294 294 294 293 293 294 295 294 294 295 293 292 294 294 293 294 295 294 293 294 293 293 293 293 293 293 292 293 293 293 293 293 292 291 291 291 290 290 290 290 289 289 288 288 288 288 288 288 288 287 287 287 286 286 286 286 285 285 284 283 282 281 281 281 281 281 281 280 280 280 279 279 279 279 278 278 278 278 278 278 277 277 275 274 273 272
294 294 295 295 294 293 293 294 294 293 292 292 294 294 294 294 294 294 293 293 293 293 293 292 292 292 292 292 293 293 293 292 292 291 291 291 290 290 290 289 289 288 288 288 288 288 287 287 287 287 286 286 285 285 285 285 285 284 283 282 281 281 281 281 281 280 280 280 279 279 279 279 278 278 278 278 278 278 277 277 276 276 275 273 273 272
292 290 291 294 295 292 291 291 291 291 292 292 293 293 293 293 294 293 293 293 293 293 293 293 292 292 292 292 292 292 292 292 291 291 291 291 290 289 289 289 288 288 288 288 287 287 287 287 287 286 286 285 285 285 285 284 283 283 282 281 281 280 280 280 280 280 280 279 279 278 278 278 278 278 278 278 277 277 276 276 275 274 274 273 272 272
291 290 290 292 294 293 293 292 291 291 292 292 293 293 293 293 293 293 293 293 293 293 293 292 292 292 292 292 292 292 292 291 291 291 291 290 290 289 288 288 288 288 288 287 287 287 287 286 286 286 285 285 284 284 284 283 282 281 281 280 280 280 280 280 280 279 279 279 278 278 277 277 278 278 278 277 277 276 276 275 274 273 273 273 272 271
292 291 292 293 292 292 293 293 291 291 292 292 293 293 293 293 293 293 293 293 293 293 292 292 292 292 291 291 291 291 291 291 291 291 291 290 289 289 288 288 288 288 287 287 287 286 286 286 285 285 285 284 284 284 283 282 281 280 280 280 280 280 280 279 279 279 278 278 277 277 277 277 277 277 277 277 276 276 275 274 274 273 273 273 272 270
292 292 293 294 292 291 292 292 290 290 291 291 292 292 292 292 293 292 292 293 292 292 292 292 292 292 291 291 291 291 290 291 290 291 291 290 289 289 289 288 288 288 287 287 286 286 286 285 285 284 284 284 284 283 282 281 280 280 280 279 279 279 279 279 278 278 278 277 277 276 276 277 277 277 277 276 276 275 275 274 273 272 272 272 271 269
292 292 292 292 292 291 292 292 291 291 291 291 292 292 292 292 292 292 292 292 292 292 292 291 291 291 291 291 291 291 290 290 291 291 290 290 289 289 288 288 288 287 287 287 286 286 285 285 284 284 284 283 283 282 281 280 279 279 279 279 279 279 278 278 278 277 277 276 276 276 276 276 276 276 276 276 275 275 275 274 274 272 271 271 271 270
292 292 292 291 291 291 291 291 291 291 291 292 292 292 292 292 291 291 292 292 292 292 292 291 291 291 291 291 291 291 291 290 291 291 290 289 289 289 288 288 287 287 287 286 286 285 285 284 284 284 283 283 282 281 280 279 279 278 278 278 278 278 277 277 277 277 276 275 275 275 275 276 276 276 275 275 275 274 274 274 274 274 273 271 271 271
Wind_Speed
6 3 2 5 8 11 12 11 10 6 2 2 2 3 5 6 6 6 6 6 0 1 7 5 3 6 8 10 14 13 11 10 7 14 16 17 18 19 21 21 21 22 21 17 15 14 13 12 12 11 11 10 10 10 9 9 8 7 5 4 4 5 4 4 4 4 5 6 6 6 6 7 7 7 7 8 9 10 10 11 12 13 14 15 16 17
5 4 8 12 12 9 6 6 6 3 1 2 3 4 6 5 7 7 5 6 1 2 5 2 3 7 9 10 11 12 11 11 11 16 16 17 19 19 20 22 22 23 21 20 20 20 19 19 18 18 19 19 20 21 21 21 20 18 16 14 13 10 7 6 4 3 4 4 4 5 6 6 6 7 7 7 8 8 9 10 10 11 11 13 14 15
2 5 13 13 6 1 0 3 5 5 4 4 3 2 5 4 4 7 5 4 2 1 4 4 4 7 10 6 8 11 10 11 14 16 15 17 18 18 20 21 23 24 24 25 26 27 27 27 28 29 30 31 30 31 31 30 29 27 27 25 23 20 17 15 12 8 6 4 3 3 4 4 5 6 6 7 8 8 9 9 9 10 10 11 12 13
3 7 12 10 4 2 3 3 5 4 3 4 4 3 5 4 1 4 5 4 3 1 3 4 4 6 7 1 8 11 13 17 19 20 19 18 19 19 19 21 23 25 27 29 30 31 32 32 35 36 36 34 33 34 33 32 31 31 30 29 28 26 24 22 19 16 14 11 9 6 5 4 3 3 2 3 3 4 5 6 7 8 9 10 11 11
8 7 3 3 6 6 4 4 4 4 3 4 6 6 6 5 5 6 3 4 4 4 2 3 5 5 5 1 5 7 12 16 17 19 19 18 19 20 21 22 23 25 27 30 32 33 34 35 35 35 34 33 33 33 32 31 30 30 30 29 28 27 26 25 23 20 18 16 14 12 11 10 9 7 7 6 6 5 2 1 1 1 3 5 7 9
11 9 1 4 3 5 5 5 4 6 4 4 5 9 10 8 7 5 2 4 4 4 3 4 4 5 5 1 4 5 6 9 11 14 15 15 16 19 21 22 23 25 27 30 32 33 33 33 32 32 31 30 31 31 29 28 28 27 27 27 26 26 25 24 23 21 19 18 17 16 15 15 13 12 12 12 11 10 8 6 5 5 4 3 1 2
6 6 5 5 4 5 5 5 5 7 5 2 4 7 8 6 4 4 1 2 1 4 3 4 1 5 6 3 4 5 5 6 7 10 11 13 15 17 20 20 22 25 27 29 31 31 31 30 29 29 28 28 28 28 26 25 24 24 24 24 23 23 23 22 21 20 19 18 18 18 18 18 17 16 15 13 12 11 10 9 8 7 7 7 6 5
2 1 3 5 5 5 5 5 6 7 7 3 4 4 5 5 4 4 4 2 3 2 5 2 3 4 6 4 4 8 8 5 5 6 7 10 13 15 18 19 21 23 25 28 29 29 28 27 27 27 26 25 25 24 22 22 22 21 21 21 21 21 21 20 19 18 18 18 18 17 18 18 18 18 16 14 12 12 12 11 11 10 9 8 7 6
1 2 4 6 4 4 6 5 6 8 5 6 5 5 6 6 6 4 5 2 1 2 5 3 2 2 6 4 2 6 5 4 4 4 4 7 11 14 16 18 20 22 24 26 27 27 26 25 24 24 23 22 21 20 20 20 19 19 18 18 18 19 19 18 17 17 17 17 16 16 16 17 18 18 17 15 14 14 14 13 13 13 12 11 10 9
1 1 4 6 5 5 6 3 6 8 3 4 4 5 5 5 4 4 5 3 2 2 5 6 5 3 5 4 2 3 3 4 5 4 4 7 10 13 15 17 18 20 23 24 24 24 23 22 22 21 20 19 18 18 17 17 17 16 16 15 16 17 17 16 15 15 15 15 14 14 15 16 17 16 15 14 14 14 14 13 13 13 13 13 13 13
2 2 1 3 4 5 5 2 2 4 4 5 5 5 6 5 5 4 2 4 2 4 7 8 10 7 4 5 4 4 3 5 8 5 5 8 11 13 15 17 18 19 21 22 22 21 21 20 19 17 16 16 16 15 14 14 14 13 13 13 14 15 14 14 14 12 12 12 12 13 13 13 14 13 11 11 12 13 12 13 13 13 13 13 13 13
4 2 3 3 3 4 6 3 3 3 4 6 5 4 3 4 4 4 4 4 1 6 7 5 7 6 4 5 3 3 4 3 10 10 9 10 13 15 16 17 18 19 20 20 19 19 18 16 15 14 14 14 13 12 11 12 12 12 12 11 11 13 13 12 12 10 10 10 11 12 12 12 12 11 11 11 12 12 12 13 13 12 12 12 12 12
3 4 4 3 2 4 5 3 2 5 5 5 4 5 3 3 3 3 2 0 3 7 5 2 5 3 5 5 2 3 6 3 7 12 15 17 17 17 17 17 18 19 19 18 17 16 15 13 13 12 12 11 10 10 10 10 10 10 10 9 9 11 11 10 10 9 9 10 11 11 11 12 12 12 12 12 13 13 13 13 12 12 12 12 12 12
3 5 2 2 4 6 8 4 2 1 2 4 5 5 4 2 1 3 4 2 4 5 3 2 4 2 4 2 2 3 5 2 11 17 19 21 21 19 18 18 18 19 17 16 15 14 13 12 12 11 10 9 9 9 9 8 9 9 9 9 9 10 10 9 9 9 9 10 12 12 12 13 13 13 13 13 14 14 13 13 13 13 13 13 13 14
3 5 3 4 2 6 9 6 5 5 3 4 5 5 5 4 4 4 4 3 4 4 3 2 2 2 3 1 3 2 4 6 15 19 19 20 20 19 18 18 18 17 16 14 13 12 12 11 10 9 8 7 7 7 7 7 8 8 8 8 8 9 9 8 8 9 10 11 12 12 12 12 13 13 13 13 13 14 14 15 14 14 14 14 14 14
3 6 6 3 1 6 7 4 6 6 1 2 3 4 2 4 5 3 3 5 3 3 3 2 3 3 3 1 2 4 6 8 12 15 16 17 17 18 18 17 17 16 14 13 11 11 10 9 8 7 6 6 5 5 5 6 7 7 8 8 7 8 8 8 9 10 11 11 11 11 12 12 12 12 12 12 12 13 14 14 14 15 15 15 14 14
2 5 5 2 1 3 4 3 4 3 2 1 3 3 4 4 5 2 3 0 2 2 4 2 2 2 1 0 1 4 4 4 6 10 14 16 16 17 17 17 16 15 13 11 10 9 9 8 7 5 5 5 5 5 6 6 7 7 8 8 7 8 8 8 9 10 11 10 10 11 11 11 11 11 12 12 12 12 13 13 13 13 14 14 14 15
2 4 5 1 2 3 1 2 2 2 3 4 3 5 3 1 4 3 1 2 2 3 4 1 3 3 1 2 0 2 3 5 5 6 10 13 15 16 17 17 15 14 12 11 9 8 8 7 5 4 4 5 5 5 6 7 8 8 8 8 8 8 8 9 9 10 10 9 9 10 10 10 10 10 11 11 12 12 12 13 13 13 14 14 15 15
1 3 6 1 3 2 3 3 2 4 2 4 3 3 3 1 1 1 2 2 2 4 4 4 5 3 4 4 4 6 10 9 7 6 8 11 16 17 17 17 15 14 12 10 9 8 7 5 3 3 4 4 4 5 6 8 8 8 8 8 8 8 8 8 8 8 7 8 8 8 8 9 9 9 9 10 11 11 12 13 14 14 15 15 16 17
1 2 5 2 1 1 4 2 2 3 2 3 1 1 1 3 3 2 2 3 3 4 4 5 6 4 5 5 8 12 13 12 11 8 8 13 19 20 19 18 16 14 13 10 9 8 7 4 3 4 5 5 6 7 8 9 8 8 8 7 7 7 6 6 6 6 6 7 8 8 8 9 10 10 11 11 12 12 13 14 15 15 16 17 18 18
1 2 4 3 3 0 1 2 5 5 2 1 1 2 1 1 1 1 1 2 3 3 3 4 5 5 4 3 7 11 11 12 13 11 10 16 21 21 19 17 16 14 13 11 9 9 7 5 5 7 8 9 9 8 8 7 6 6 6 6 7 7 7 8 9 10 10 11 12 12 12 12 13 14 15 15 16 16 17 17 18 18 18 18 19 20
1 2 3 3 2 2 4 3 4 6 5 4 3 3 3 2 1 2 4 1 2 3 4 4 5 6 4 2 4 6 8 11 16 15 14 20 24 21 18 16 15 14 13 11 9 9 7 7 9 10 10 10 9 8 6 6 5 6 7 8 9 10 10 11 12 14 15 16 16 16 17 17 17 17 18 18 18 19 20 20 21 21 22 21 21 21
2 3 1 3 4 5 4 2 1 4 5 5 2 2 3 3 4 3 5 3 1 1 2 2 3 4 2 3 1 5 11 16 22 21 19 22 24 20 17 15 14 13 12 11 11 10 10 10 12 11 11 10 8 7 6 6 7 8 9 10 11 11 12 13 14 16 18 18 19 20 21 21 22 22 22 21 21 21 21 22 23 23 24 25 24 24
3 3 1 3 4 3 3 4 4 3 4 3 1 1 2 2 3 4 4 2 1 2 1 0 3 3 2 4 3 8 12 17 22 22 19 19 20 19 17 16 16 15 13 13 12 12 12 13 13 12 10 8 7 6 5 6 6 8 9 11 12 12 13 14 16 18 20 20 21 22 23 25 26 26 27 27 26 26 25 25 25 25 26 26 27 27
2 1 2 1 3 5 4 4 5 5 2 1 1 1 1 3 4 2 1 2 1 4 5 4 5 4 2 4 5 8 10 11 15 18 16 13 14 17 18 17 17 17 16 15 14 14 14 14 12 10 8 6 5 4 4 5 7 8 10 11 13 13 14 16 17 19 21 22 22 23 25 27 28 29 30 30 31 31 31 31 31 30 30 29 29 29
3 2 3 3 5 8 7 4 3 2 1 1 1 1 0 3 4 2 0 1 2 3 4 4 5 3 3 3 3 3 5 7 10 12 12 11 11 13 16 18 18 18 17 16 15 14 14 13 11 9 7 6 4 2 3 6 8 9 10 11 12 14 14 15 17 19 20 22 23 24 26 28 30 31 31 32 32 33 33 34 34 34 33 33 33 34
2 1 3 5 8 8 6 6 5 3 2 2 2 2 4 4 4 4 2 3 2 1 3 6 6 4 6 5 3 4 5 6 7 10 12 14 15 16 17 18 19 18 16 15 14 14 13 12 11 8 6 4 1 2 5 6 7 8 9 10 11 12 13 14 16 18 19 22 23 24 26 28 30 30 31 32 33 34 34 34 35 35 35 35 36 37
3 2 4 5 6 5 3 5 3 3 3 5 4 6 8 6 5 6 5 4 2 1 5 9 6 4 9 9 6 7 7 5 7 12 14 14 16 18 19 20 19 17 15 15 15 15 13 11 9 7 5 5 5 6 6 7 8 9 10 11 12 13 14 16 18 19 20 21 23 24 26 28 29 29 30 32 33 34 34 34 34 35 36 37 38 39
4 3 3 3 4 4 3 4 4 2 2 4 5 8 10 9 7 6 6 7 7 6 8 10 7 7 10 11 6 7 9 10 11 15 16 16 16 17 19 21 20 18 17 17 16 15 13 11 9 8 8 9 9 10 10 10 11 12 14 15 15 16 17 18 19 20 21 22 24 26 28 29 30 30 32 33 35 34 34 34 35 36 37 38 40 41
3 2 1 2 3 4 1 3 3 3 2 3 7 10 10 11 9 6 8 11 10 9 11 12 12 13 13 10 6 8 11 13 14 15 16 17 17 17 19 22 21 19 18 17 15 14 14 13 13 12 11 12 12 12 13 14 14 15 15 15 15 16 17 17 19 21 22 24 26 28 29 30 31 32 33 34 34 34 35 36 37 39 40 41 42 44
1 1 1 3 0 4 2 1 2 2 2 4 8 11 10 9 8 8 10 9 6 9 12 11 10 14 12 5 5 9 9 8 11 13 14 14 14 16 20 22 19 17 17 16 15 15 15 15 14 13 12 12 13 14 15 15 14 13 13 14 16 17 19 20 21 23 24 25 27 28 29 31 32 33 33 33 34 35 37 38 40 41 43 44 46 46
1 1 1 4 1 5 3 1 0 2 3 6 12 15 14 11 9 9 8 7 9 10 10 8 7 10 10 4 4 8 7 7 11 13 12 12 13 17 21 20 17 16 17 17 17 17 16 15 14 13 11 11 11 12 13 14 13 13 15 18 20 21 22 23 24 24 25 26 27 29 30 30 31 31 32 34 36 37 39 40 41 43 44 46 47 47
3 4 1 3 2 4 2 3 1 4 5 8 11 10 11 10 8 8 8 10 10 7 6 7 8 9 8 6 5 6 6 8 12 14 14 14 16 18 19 18 17 16 16 17 18 17 16 15 14 13 11 10 10 12 13 14 15 16 19 20 21 22 22 23 24 26 27 27 28 29 28 29 30 32 34 36 38 39 41 42 43 44 44 46 46 47
5 5 3 4 3 3 4 5 2 2 6 9 4 4 6 7 8 9 10 10 8 6 6 7 7 6 7 6 7 9 9 10 13 15 15 14 16 18 16 15 15 14 15 17 17 16 16 15 14 13 12 12 14 16 16 16 16 18 19 20 21 21 23 24 25 26 27 27 27 28 28 31 33 35 37 38 39 40 42 42 43 44 44 45 46 47
5 5 3 3 2 2 4 4 2 8 9 5 1 3 6 7 8 7 8 8 8 8 8 8 7 7 9 12 15 17 14 10 12 14 13 13 14 15 14 13 13 13 15 17 17 16 15 15 14 14 15 17 18 17 16 17 18 19 20 21 21 23 24 25 26 27 27 27 27 29 31 33 35 36 38 39 40 41 41 42 43 43 44 45 46 48
5 4 2 2 2 1 2 4 7 6 4 6 6 3 2 2 3 1 5 8 9 9 8 8 10 11 13 17 17 13 8 9 12 12 12 13 13 14 14 14 13 12 12 14 14 13 13 13 15 16 18 19 19 18 17 18 19 20 21 22 23 24 26 26 27 27 27 28 29 32 34 35 36 37 38 39 40 41 41 42 43 43 45 46 48 49
5 4 1 2 3 2 3 6 6 5 8 13 11 3 4 4 5 4 4 8 7 8 10 8 9 10 12 14 11 6 9 9 6 7 11 13 14 14 14 14 12 10 10 10 10 11 13 15 17 18 20 20 19 19 19 19 20 21 23 24 25 26 26 27 27 27 28 30 32 34 35 36 37 38 38 39 39 40 41 41 43 44 45 47 49 51
3 4 5 5 4 3 4 6 6 6 10 11 6 2 4 7 7 7 4 6 4 8 14 11 7 7 6 7 8 10 10 5 2 6 13 15 13 12 11 11 11 10 10 11 12 13 15 17 19 20 21 21 20 20 19 19 20 22 24 25 26 27 28 28 28 28 29 31 33 34 35 36 36 37 38 38 39 40 41 42 43 45 46 48 50 52
2 1 4 5 4 4 5 5 5 7 9 7 5 3 3 7 9 7 2 5 6 8 14 10 6 7 8 10 13 11 6 3 4 9 15 15 12 11 12 12 12 13 14 15 16 16 17 19 20 21 22 22 21 20 19 20 22 24 25 26 27 28 29 29 29 30 31 33 34 34 35 35 35 36 37 38 39 40 42 43 44 45 46 47 49 50
3 1 2 5 7 7 7 5 4 5 6 4 5 4 5 7 9 9 1 8 6 8 14 12 9 10 12 15 15 10 6 7 10 14 15 15 10 12 14 15 17 18 18 18 17 17 18 20 21 23 23 22 22 21 21 23 25 26 27 28 28 29 30 30 30 32 33 34 34 34 34 34 34 35 36 38 39 41 42 43 45 45 46 47 47 48
1 1 2 5 7 9 9 6 4 5 5 5 6 9 10 6 5 4 4 6 6 11 14 13 12 12 14 17 17 13 14 20 20 16 12 12 12 14 16 18 19 18 17 17 17 18 20 21 23 24 24 23 22 22 24 26 27 27 28 29 29 30 30 31 32 33 33 34 34 34 33 33 34 35 36 38 39 41 43 43 44 45 46 46 46 46
2 1 2 4 5 5 5 4 5 6 5 8 10 11 11 6 1 6 7 5 8 13 14 14 15 14 16 20 23 22 24 26 22 15 12 13 14 14 16 18 18 16 16 17 18 20 22 23 24 25 25 24 24 25 26 27 28 28 29 29 30 30 31 32 33 34 34 34 34 33 33 33 34 35 36 38 39 41 43 43 43 44 44 44 44 44
6 4 3 4 3 2 2 4 5 6 6 15 14 5 5 6 6 9 9 10 13 15 14 16 17 15 17 22 26 28 28 25 21 18 17 17 16 16 18 19 18 18 18 19 21 22 23 24 26 25 25 25 25 27 28 28 29 29 29 29 30 30 32 33 33 34 34 34 34 33 33 34 34 35 36 38 39 40 42 42 42 43 43 42 42 42
4 5 4 4 3 4 4 6 6 3 6 20 18 7 10 17 18 18 15 14 16 16 16 17 17 16 19 23 26 28 29 26 23 21 20 19 19 20 20 20 19 19 20 21 22 23 23 25 26 26 26 26 26 28 28 29 29 29 29 29 30 31 32 33 33 33 33 33 34 34 34 34 35 35 36 37 38 39 40 41 41 41 41 39 39 40
6 7 5 3 4 5 5 6 6 5 9 22 25 18 18 23 26 26 22 18 17 17 18 18 18 18 20 24 27 28 28 27 25 24 23 22 22 22 22 21 20 20 21 22 23 24 25 26 26 26 27 27 27 28 28 28 29 29 29 29 30 32 33 33 33 33 33 33 34 33 34 34 35 35 36 36 37 38 38 38 39 39 39 38 37 37
7 7 3 1 2 4 5 6 6 6 11 22 27 25 22 22 25 26 25 23 21 21 21 21 21 21 21 24 28 29 29 29 28 27 26 24 23 23 22 21 20 20 21 22 23 25 26 26 27 28 28 27 27 28 28 28 28 29 29 30 31 33 33 33 33 33 33 33 33 33 33 34 35 36 36 36 36 36 36 36 36 37 37 36 35 34
6 7 4 2 3 4 4 5 8 11 15 20 26 28 28 27 26 25 24 25 26 26 24 23 24 24 23 23 27 28 29 30 29 29 28 26 25 24 22 20 19 21 22 23 24 25 26 27 28 28 28 28 28 28 28 28 27 28 29 30 32 32 32 32 33 33 34 33 33 33 33 34 35 36 36 36 35 35 34 33 33 34 35 34 34 33
4 6 5 5 6 6 4 6 12 18 19 20 24 28 30 31 30 27 26 27 27 26 26 26 26 26 24 25 27 29 30 30 30 30 30 28 27 25 21 20 20 21 22 24 25 26 26 27 27 27 27 28 28 29 29 27 27 28 30 31 32 32 32 32 32 33 33 33 32 32 32 33 35 35 36 35 35 34 34 32 31 32 33 31 31 33
4 4 4 4 5 4 3 8 14 13 12 18 26 29 30 32 31 29 28 28 28 29 29 29 28 27 27 28 28 28 29 29 28 29 30 29 27 23 20 19 20 22 24 25 25 26 26 26 26 27 27 28 28 29 28 27 27 28 30 31 31 31 32 32 32 33 33 32 32 32 32 33 34 34 35 35 35 34 32 30 29 31 33 31 28 28
5 5 5 4 3 3 4 12 16 8 6 18 29 32 32 33 32 32 32 32 31 32 31 30 30 30 30 29 28 27 28 26 25 27 30 30 27 22 20 19 21 23 24 25 26 27 27 26 27 27 27 28 28 28 27 27 27 28 29 30 30 31 31 32 32 32 32 31 31 31 31 32 33 33 33 34 34 35 34 30 26 26 30 31 27 24
16 14 9 6 6 9 13 23 25 15 11 21 31 32 30 28 27 29 30 30 30 30 29 28 29 30 29 29 28 27 27 25 25 27 30 30 26 23 21 20 22 23 25 26 27 28 27 27 27 28 28 27 27 27 27 27 27 27 29 29 29 30 30 30 31 32 31 30 30 30 31 32 32 33 33 32 32 34 35 34 30 24 23 25 27 26
Wind_Direction
159 141 164 206 216 213 214 206 208 224 167 177 217 236 250 253 271 265 259 275 25 301 275 261 246 272 287 289 300 324 3 19 70 106 99 93 90 86 84 82 80 79 78 78 79 80 83 86 87 89 88 88 89 84 80 77 73 75 84 107 119 115 136 163 170 184 194 200 206 212 217 220 224 231 238 243 248 252 256 261 265 267 269 271 272 274
148 178 222 219 219 217 213 195 205 250 269 242 237 261 269 247 259 260 255 285 337 162 265 314 348 295 287 290 320 353 18 31 78 104 97 95 93 87 88 85 85 86 87 88 86 86 88 88 89 87 85 83 79 77 76 75 74 74 76 79 82 88 97 107 115 152 185 191 197 206 209 213 219 224 230 234 239 243 245 250 254 258 262 263 264 266
158 225 238 231 224 263 297 150 176 218 219 221 206 227 260 237 265 281 279 306 355 151 271 335 348 289 284 301 8 36 63 62 77 96 98 98 94 88 89 87 91 92 91 91 88 88 88 87 88 86 84 82 80 79 78 77 77 76 75 75 76 78 79 81 80 84 92 101 125 165 182 198 211 213 219 225 230 238 240 244 249 251 254 256 257 260
192 241 251 236 178 167 247 197 165 200 227 211 185 187 250 240 211 277 292 319 334 312 272 322 321 283 278 335 54 55 79 78 79 88 87 90 91 89 91 90 92 92 91 91 91 91 92 91 90 88 86 84 82 80 78 77 75 74 74 73 73 72 72 73 73 73 73 73 78 85 98 107 123 144 165 191 209 229 237 240 245 251 255 254 254 254
220 236 256 145 151 171 228 244 169 178 247 238 207 204 237 249 217 220 279 328 332 344 12 6 333 294 277 195 89 71 76 75 75 79 77 80 86 89 93 92 92 92 92 93 93 94 94 92 90 87 85 83 80 79 77 76 74 73 73 71 70 69 68 69 69 70 71 71 73 75 76 76 76 79 80 78 76 73 83 132 164 232 264 263 259 256
241 243 194 98 140 168 197 247 201 175 220 272 232 212 220 236 233 228 316 15 7 331 340 33 355 291 301 329 149 125 74 64 65 68 69 73 82 88 90 91 94 96 95 94 94 94 93 90 87 84 82 79 78 77 76 76 76 75 73 72 70 68 66 66 66 67 69 71 74 76 76 75 74 73 71 66 60 59 60 65 77 83 81 74 18 286
252 245 209 202 208 189 204 256 228 175 163 270 249 208 206 212 222 231 178 85 134 255 296 50 83 270 308 316 189 146 90 73 66 60 65 73 82 90 93 96 98 98 98 98 97 95 93 89 86 82 80 78 78 77 77 77 76 75 73 72 70 69 67 66 65 64 63 64 66 67 69 70 69 67 65 62 57 57 57 56 61 69 76 80 78 71
214 123 176 200 209 206 222 256 228 164 134 235 250 146 136 146 172 189 135 138 219 252 318 8 141 255 292 280 198 139 108 86 72 65 71 81 90 97 101 103 103 102 101 100 98 95 92 88 84 82 81 80 80 80 80 78 76 74 72 71 70 70 70 69 68 67 63 61 61 62 64 65 65 64 64 63 59 59 58 54 54 53 53 54 58 65
134 138 192 173 159 194 216 232 192 149 138 243 224 118 112 133 150 135 106 122 300 3 305 277 144 245 270 273 185 139 133 137 137 126 104 102 108 109 108 108 107 106 104 101 99 96 92 89 86 85 83 83 83 82 81 78 76 74 72 71 70 71 72 73 73 71 69 67 65 65 64 65 67 65 65 63 60 57 54 50 48 45 42 39 33 28
26 195 207 152 150 204 215 226 175 158 178 218 155 89 59 67 80 81 100 107 33 341 252 214 172 209 267 281 203 169 200 183 161 149 145 135 126 121 118 116 112 109 106 103 101 96 93 91 88 88 87 86 85 83 82 82 79 76 74 72 71 73 76 77 76 73 73 73 71 70 69 68 70 68 66 63 59 56 52 47 45 41 38 35 29 22
311 329 239 163 189 196 161 109 121 156 155 128 94 51 27 21 34 42 63 80 55 283 251 211 188 187 262 286 201 194 244 178 155 150 165 156 143 136 129 124 119 114 110 106 102 98 95 92 91 90 88 87 87 87 87 86 83 80 77 74 74 80 83 82 81 79 78 79 75 73 71 69 68 66 61 56 52 51 47 44 43 40 36 34 31 26
325 307 261 245 212 149 113 83 27 37 89 100 82 66 38 340 6 20 360 46 123 253 264 225 181 170 225 260 228 262 309 180 161 162 169 164 156 148 138 132 126 119 114 109 104 100 97 95 94 91 89 90 92 92 89 86 84 81 80 78 79 84 86 84 84 82 80 79 74 71 68 67 63 57 52 48 48 46 42 42 41 40 37 34 31 28
312 242 265 312 252 166 122 85 4 11 50 87 98 102 95 312 343 348 298 262 219 249 267 183 144 166 237 244 259 310 331 333 153 155 160 160 157 152 143 138 131 124 118 112 107 104 102 100 96 93 93 95 96 94 92 90 87 84 83 82 80 84 86 83 82 80 76 73 69 66 62 60 56 51 49 47 46 44 40 39 35 32 31 26 23 20
297 293 294 338 280 196 158 146 212 279 111 138 144 138 146 172 202 258 256 262 265 266 278 166 149 242 266 291 339 325 333 20 133 146 157 156 154 152 146 141 134 128 123 117 114 112 107 103 98 95 94 95 96 95 94 93 88 84 84 81 79 84 83 78 77 72 68 65 60 56 53 51 47 43 41 39 39 37 34 32 28 27 26 21 18 14
241 300 225 192 241 179 174 185 169 145 151 178 158 140 154 163 172 219 226 217 252 280 295 255 184 205 213 292 329 1 32 98 133 147 154 152 153 152 147 144 137 132 129 124 121 115 108 103 99 95 93 95 97 98 99 95 89 83 82 79 78 82 80 74 71 65 60 57 52 49 45 42 39 35 32 30 29 26 24 22 19 19 18 15 15 12
204 263 250 239 182 156 177 196 137 112 116 227 128 115 172 186 172 212 216 180 188 286 291 241 218 203 177 242 355 69 70 93 126 142 147 150 155 154 152 148 143 139 136 131 125 116 110 105 100 98 99 102 105 109 108 100 94 90 89 90 88 84 80 73 66 59 54 49 45 42 38 37 34 30 27 25 22 20 16 12 9 8 7 5 3 1
196 263 281 343 354 178 179 178 143 138 196 171 121 175 216 177 132 136 268 153 108 243 262 218 226 279 337 275 45 77 82 101 127 142 149 156 161 162 160 155 150 148 143 136 131 123 119 113 107 108 112 116 123 124 116 107 102 100 99 98 94 86 79 71 63 57 52 46 42 38 34 31 26 21 18 16 14 13 10 4 1 360 356 353 351 348
192 262 274 159 191 239 162 122 71 59 132 129 172 214 211 123 86 100 239 332 24 244 271 283 228 245 256 251 302 108 167 183 180 166 162 168 174 175 170 162 158 156 151 148 143 137 133 123 117 127 134 136 136 132 122 114 112 111 109 104 98 89 79 69 61 55 49 43 39 35 30 23 16 11 7 4 2 360 356 352 350 350 347 345 342 340
156 268 279 195 179 271 16 85 46 4 71 128 185 198 125 144 274 85 171 225 247 247 278 295 268 239 215 210 190 197 200 193 188 183 180 188 189 185 178 170 167 165 163 161 155 153 151 145 152 163 164 169 158 148 137 126 122 120 115 109 100 88 76 67 57 50 42 33 29 23 18 11 4 360 353 349 348 343 341 339 338 339 338 338 336 334
115 241 280 317 214 300 30 78 185 270 341 69 110 316 70 166 184 171 171 180 212 239 260 284 287 269 236 203 183 200 199 180 178 186 194 198 192 187 181 175 175 174 174 174 171 174 174 176 195 185 177 169 151 139 131 125 121 115 108 100 91 79 69 60 45 35 24 15 10 3 359 353 347 344 339 336 335 332 331 330 329 329 328 329 329 327
86 214 256 305 335 93 153 213 191 191 193 120 165 238 260 205 164 248 234 137 152 206 227 255 269 266 256 202 187 202 192 174 179 181 189 198 194 189 185 180 181 182 182 186 188 185 186 194 189 173 162 152 141 135 131 125 117 102 86 70 59 46 38 30 21 17 11 5 1 356 352 348 343 340 336 334 332 331 331 329 327 326 323 323 323 321
160 189 220 274 314 186 222 241 182 170 160 150 175 199 194 171 138 252 260 200 140 192 190 206 259 272 265 244 217 196 169 171 180 176 182 197 196 191 190 189 188 190 191 194 194 194 197 196 182 168 159 153 147 143 132 113 90 69 54 42 34 27 23 20 16 12 7 2 359 355 352 348 344 340 336 335 332 330 330 329 327 325 322 321 320 319
127 117 159 252 240 214 235 283 152 163 141 135 166 173 158 147 131 180 235 234 188 229 154 149 248 268 280 297 255 163 164 172 178 178 183 195 197 194 195 196 195 198 202 201 198 202 200 192 183 171 161 154 143 130 111 87 68 52 38 28 21 14 9 6 2 358 355 352 351 349 347 344 341 338 336 334 333 331 330 328 327 325 323 322 320 319
96 94 155 268 292 301 311 340 2 37 91 120 277 81 132 164 149 167 205 183 155 254 238 144 251 249 316 350 77 142 161 167 174 182 189 197 202 202 202 203 204 205 207 206 204 203 195 187 182 173 161 151 133 115 94 69 47 30 17 9 3 357 351 347 343 341 339 339 340 340 339 338 336 334 332 331 330 329 328 327 326 325 323 321 320 318
174 138 130 209 306 313 314 332 345 353 42 141 269 321 82 107 103 93 106 103 123 219 197 213 250 252 325 11 65 121 149 167 184 194 198 206 212 212 212 213 213 210 208 206 202 197 190 183 177 171 161 149 130 108 70 33 11 360 355 350 346 343 340 337 333 330 329 327 327 328 329 330 329 327 325 325 325 325 326 326 325 324 323 321 319 317
178 184 139 162 228 248 252 245 242 266 285 168 225 283 163 126 126 117 139 172 225 227 194 213 248 274 330 10 52 111 161 188 209 210 210 225 235 228 223 222 218 213 208 204 197 193 190 184 177 171 164 155 141 84 8 353 347 344 339 337 336 333 331 328 323 320 317 315 315 317 319 321 321 320 319 318 320 321 322 322 322 321 320 319 318 316
115 201 192 189 221 237 225 217 210 152 145 221 245 237 234 216 164 151 182 203 208 257 249 241 241 264 278 263 200 198 213 212 227 233 230 233 238 237 233 227 219 212 207 203 197 194 191 185 179 176 175 179 210 306 317 320 319 317 316 315 317 315 312 309 305 303 301 302 304 306 309 312 312 313 313 313 315 317 317 317 316 316 316 315 315 314
102 232 236 205 232 245 160 178 195 129 162 216 241 256 255 240 167 158 193 210 176 201 251 249 237 232 260 259 206 189 219 232 237 246 247 242 242 242 235 224 214 206 202 199 196 195 191 188 189 193 204 222 244 256 261 266 269 275 282 285 285 285 285 286 287 288 288 290 294 298 302 304 305 305 306 307 309 311 311 311 310 311 311 311 311 311
123 229 240 168 235 260 127 146 170 158 201 222 232 251 260 257 230 196 213 223 214 226 249 256 251 239 254 264 236 189 209 229 242 252 257 258 257 250 232 215 204 198 197 197 199 199 199 201 208 214 223 231 235 237 241 246 255 262 267 271 274 275 276 278 279 280 283 286 290 295 298 299 300 300 301 303 305 306 306 306 307 307 308 308 308 308
119 216 215 151 242 273 195 167 178 174 210 246 246 245 249 256 251 231 234 237 228 232 247 257 262 260 257 254 242 230 230 235 246 255 256 255 256 247 224 205 196 195 198 200 204 208 213 217 222 227 231 234 237 240 245 250 257 263 267 273 278 281 282 283 283 284 286 289 291 293 294 295 296 297 299 301 303 304 305 306 307 307 307 307 306 305
112 178 143 105 305 295 302 131 140 144 179 252 267 263 257 258 256 241 239 241 238 240 247 251 258 265 263 230 216 256 259 237 234 242 243 242 239 226 208 196 193 196 199 203 208 214 220 223 224 225 227 232 239 244 248 252 256 263 273 283 290 293 295 295 294 294 294 293 292 292 292 293 294 296 298 300 302 304 305 306 306 306 306 306 305 304
145 181 43 80 102 276 284 123 95 7 358 284 274 268 260 254 252 246 236 223 222 232 242 244 247 259 262 235 224 262 261 228 221 222 221 217 208 202 197 191 192 196 197 204 211 213 215 215 214 215 219 228 240 246 249 253 259 272 286 294 299 302 303 302 301 299 296 294 292 292 292 294 295 298 300 302 303 304 304 305 305 305 305 304 304 304
146 146 138 121 158 259 229 167 188 19 356 285 269 260 253 247 239 242 246 237 223 208 207 224 232 243 257 272 281 266 233 217 216 210 207 205 197 193 193 191 193 198 202 209 211 209 210 211 212 218 226 239 254 261 260 261 272 286 295 300 302 303 303 302 300 297 295 294 294 295 296 298 299 301 303 303 304 305 305 306 306 306 306 306 305 305
153 147 168 170 174 222 181 140 92 319 268 263 242 172 210 222 213 224 243 243 221 188 198 229 246 253 258 264 260 252 245 231 215 204 200 199 191 187 189 192 197 206 211 212 211 212 215 218 221 230 245 263 271 271 268 272 284 295 300 303 304 304 304 302 300 298 297 297 297 298 299 301 302 303 304 305 306 307 307 308 308 308 308 307 307 306
167 163 173 175 181 206 154 126 210 241 245 264 343 179 208 203 194 214 248 251 224 209 219 240 252 251 244 241 245 256 260 231 194 184 182 186 191 191 195 205 214 218 216 212 211 215 221 228 238 251 263 270 270 267 268 278 290 298 302 304 304 305 305 303 302 301 299 298 298 299 301 303 304 305 306 307 308 309 309 309 309 309 309 308 308 307
170 169 165 157 164 169 137 182 226 250 293 300 286 264 176 163 150 162 283 264 228 206 208 226 240 241 241 246 253 257 234 176 166 178 184 192 207 214 221 229 229 219 211 211 218 228 239 250 259 266 267 265 262 260 265 277 289 297 302 303 304 305 305 304 303 301 299 300 301 303 305 306 307 308 308 309 309 310 310 310 310 310 310 309 309 308
166 165 191 199 200 207 211 223 245 307 309 281 267 220 161 196 169 146 245 259 230 195 192 208 237 242 241 249 248 202 163 155 162 200 203 209 223 230 234 234 222 205 204 219 240 252 257 261 262 260 259 256 253 255 263 277 290 298 301 302 304 306 305 304 302 300 300 302 304 306 308 308 309 309 310 311 311 311 311 311 311 311 311 311 310 310
178 183 191 212 229 212 220 243 255 265 265 263 260 202 181 204 185 160 204 267 265 207 196 197 220 223 216 224 197 160 154 162 255 232 212 210 216 216 216 217 211 214 232 251 264 262 258 259 257 254 253 251 250 256 270 285 296 300 301 302 304 306 305 303 301 300 302 305 307 308 309 309 310 311 312 312 312 311 311 312 312 313 312 312 311 310
169 178 170 203 228 207 213 234 231 239 254 260 251 238 180 178 164 122 102 277 270 207 190 185 195 193 186 188 178 163 154 173 255 239 209 196 204 213 213 218 227 241 256 265 270 269 264 261 257 254 253 252 256 267 281 293 299 301 301 303 305 305 303 301 301 303 305 307 308 309 310 311 312 312 312 312 312 312 313 313 314 314 313 312 311 310
154 132 162 207 222 218 223 236 237 243 253 249 231 214 169 157 131 95 50 267 250 182 180 187 200 208 210 201 184 170 177 204 248 253 214 193 218 238 233 237 243 250 259 264 266 266 264 261 258 256 256 258 265 277 288 295 299 300 301 303 304 303 301 301 303 305 307 308 309 310 311 312 312 313 312 312 313 314 314 315 315 315 314 312 311 311
149 195 211 215 225 225 222 230 260 259 234 209 195 175 154 126 101 128 223 241 192 172 183 197 212 223 225 211 194 196 226 237 250 256 223 206 233 242 239 243 245 249 258 263 264 265 263 261 260 258 259 263 272 282 291 296 298 299 300 302 303 301 301 302 304 306 307 308 310 311 312 313 313 313 313 314 314 314 315 316 315 315 314 313 312 312
145 160 232 219 222 229 228 230 256 269 227 179 171 168 157 132 136 216 233 246 210 203 207 214 221 230 233 223 215 224 243 246 243 243 239 241 247 244 241 241 242 249 260 264 265 265 262 260 259 258 261 268 277 285 292 295 296 297 300 301 300 299 300 303 304 306 308 309 311 312 312 313 313 313 314 314 315 315 315 316 315 314 314 314 313 312
165 158 212 221 189 165 222 223 232 266 208 162 153 149 167 180 223 233 237 248 236 228 228 226 228 236 239 235 230 233 239 240 237 242 251 253 252 248 243 241 244 256 266 268 266 263 261 260 259 260 265 272 280 287 291 293 294 297 299 299 298 298 300 303 305 307 309 311 311 312 313 313 313 314 315 315 315 315 315 315 315 314 314 314 314 311
176 164 189 222 184 155 195 214 210 257 186 165 164 185 203 208 231 240 238 242 241 237 235 233 238 249 247 240 236 233 232 233 240 250 252 247 246 244 240 241 249 260 269 270 266 262 260 259 260 263 269 276 282 287 290 292 294 296 297 297 297 299 302 304 306 308 310 311 311 312 313 313 314 315 315 315 315 314 314 315 316 315 315 315 313 310
210 193 174 191 198 177 197 217 208 219 197 184 189 208 216 223 236 240 238 241 240 237 238 240 249 260 256 244 236 231 231 238 247 255 255 251 245 238 235 242 253 262 267 266 263 261 260 260 262 267 272 278 283 287 289 291 293 295 295 296 299 301 303 305 307 309 310 311 311 312 313 313 314 315 315 315 315 314 315 317 317 315 315 314 312 310
225 209 156 111 234 228 238 232 211 217 212 198 202 217 231 237 241 239 238 240 240 244 251 255 260 267 263 250 238 233 238 246 253 258 258 253 244 236 237 246 255 261 264 261 259 259 259 261 266 270 275 280 284 286 288 291 293 294 295 298 301 303 305 306 308 309 310 311 311 312 313 313 313 314 314 314 315 315 317 319 317 315 314 314 312 313
253 219 191 183 225 224 234 222 203 212 215 205 208 221 231 236 239 241 243 245 247 251 258 263 266 267 264 255 248 247 252 258 261 262 259 250 241 237 241 252 260 263 263 260 258 258 260 263 268 272 276 281 283 285 288 291 293 294 297 301 303 304 305 307 308 309 310 310 311 312 313 313 313 313 314 314 316 316 318 320 318 314 313 314 315 317
240 204 194 218 225 214 230 243 227 225 226 221 220 225 229 233 238 243 248 251 251 254 259 263 262 260 259 260 259 259 263 265 265 265 259 247 238 239 248 261 267 266 262 259 258 260 262 265 269 273 278 281 283 286 290 292 294 296 300 303 304 304 306 307 307 308 309 310 310 311 312 312 312 313 314 315 317 318 319 321 320 315 314 317 320 321
199 192 188 200 219 219 254 261 249 244 247 242 236 233 234 238 242 246 250 252 253 258 262 261 258 258 263 267 267 265 265 265 266 266 260 246 238 242 255 266 268 265 262 262 262 263 265 268 271 275 279 280 284 288 290 292 296 299 302 303 304 305 306 306 306 307 308 308 309 310 311 311 312 314 316 317 317 318 319 323 323 319 318 320 324 325
200 225 205 173 203 212 209 233 236 231 240 247 247 246 246 246 246 249 253 256 258 263 265 263 262 264 267 269 269 266 262 262 266 265 256 244 240 249 262 267 265 264 264 265 265 266 269 272 275 278 279 282 286 289 291 294 299 302 302 303 303 304 305 305 305 306 306 307 308 310 311 312 313 316 318 318 318 318 319 322 325 323 319 319 324 329
220 227 216 186 214 231 230 235 234 222 221 246 254 258 257 255 252 252 254 259 262 264 265 264 264 265 265 265 267 265 262 264 267 261 250 243 244 255 265 266 265 265 265 266 267 269 272 275 278 279 282 285 288 290 292 297 302 303 302 302 303 303 303 303 304 304 305 306 308 310 312 313 315 317 318 318 319 320 321 322 325 324 320 320 325 331